Flag for Kazakhstan Weather past 2 weeks in Almaty, Kazakhstan

Now
57 °F

Partly cloudy.


Feels Like: 57 °F
Forecast: 52 / 81 °F
Wind: 1 mph from South

Location: Almaty Airport

Current Time: Jul 30, 2014 at 2:27:47 AM

Latest Report: Jul 30, 2014 at 2:00 AM


Visibility: N/A

Pressure: 29.92 "Hg

Humidity: 63%

Dew point: 45 °F

Location of AlmatyLocation

Historic Weather in Almaty — Graph

°F

Almaty temperature yesterday

Maximum temperature yesterday: 77 °F (at 5:00 PM)
Minimum temperature yesterday: 54 °F (at 5:30 AM)
Average temperature yesterday: 66 °F

Past Weeks' High & Low Weather Summary

 TemperatureHumidityPressure
High97 °F (Jul 20, 2:30 PM)83% (Jul 28, 6:30 PM)29.95 "Hg (Jul 28, 6:30 PM)
Low54 °F (Jul 29, 5:30 AM)9% (Jul 15, 3:30 PM)29.53 "Hg (Jul 28, 3:30 AM)
Average76 °F30%29.78 "Hg
* Reported Jul 15 1:00 AM — Jul 30 1:30 AM, Almaty, Weather by CustomWeather, © 2014

Note: Actual official high and low records may vary slightly from our data, if they occured in-between our weather recording intervals... More about our weather records

Advertising

Almaty weather history for previous 24 hours

 ConditionsComfort  
Time TempWeatherWind HumidityBarometerVisibility
1:30 AM
Jul 30
57 °FPartly cloudy.3 mph55%29.92 "HgN/A
1:00 AM59 °FPartly cloudy.1 mph51%29.92 "HgN/A
12:30 AM59 °FPartly cloudy.1 mph63%29.89 "HgN/A
12:00 AM59 °FPartly cloudy.6 mph63%29.89 "HgN/A
11:30 PM
Jul 29
59 °FPartly cloudy.6 mph63%29.89 "HgN/A
11:00 PM59 °FPassing clouds.3 mph68%29.89 "HgN/A
10:30 PM61 °FPassing clouds.No wind63%29.89 "HgN/A
10:00 PM63 °FPassing clouds.1 mph56%29.89 "HgN/A
9:30 PM64 °FPassing clouds.1 mph52%29.89 "HgN/A
9:00 PM64 °FPassing clouds.6 mph52%29.89 "HgN/A
8:30 PM66 °FPassing clouds.6 mph46%29.89 "HgN/A
8:00 PM70 °FPassing clouds.6 mph38%29.89 "HgN/A
7:30 PM72 °FPassing clouds.6 mph36%29.89 "HgN/A
7:00 PM72 °FPartly sunny.8 mph33%29.86 "HgN/A
6:30 PM73 °FPartly sunny.8 mph31%29.86 "HgN/A
6:00 PM73 °FPartly sunny.8 mph29%29.86 "HgN/A
5:30 PM73 °FPartly sunny.8 mph29%29.86 "HgN/A
5:00 PM77 °FPartly sunny.6 mph24%29.86 "HgN/A
4:30 PM75 °FPartly sunny.6 mph25%29.86 "HgN/A
4:00 PM75 °FPartly sunny.6 mph25%29.83 "HgN/A
3:30 PM75 °FPartly sunny.6 mph24%29.83 "HgN/A
3:00 PM75 °FPartly sunny.3 mph25%29.83 "HgN/A
2:30 PM75 °FPartly sunny.3 mph24%29.86 "HgN/A
2:00 PM73 °FPartly sunny.6 mph23%29.86 "HgN/A
1:30 PM73 °FPartly sunny.6 mph23%29.86 "HgN/A
1:00 PM72 °FScattered clouds.8 mph25%29.86 "HgN/A
12:30 PM72 °FScattered clouds.6 mph25%29.86 "HgN/A
12:00 PM72 °FScattered clouds.6 mph25%29.86 "HgN/A
11:30 AM72 °FScattered clouds.6 mph27%29.89 "HgN/A
11:00 AM70 °FScattered clouds.3 mph31%29.89 "HgN/A
10:30 AM68 °FScattered clouds.3 mph28%29.89 "HgN/A
10:00 AM68 °FScattered clouds.3 mph28%29.89 "HgN/A
9:30 AM66 °FScattered clouds.3 mph30%29.89 "HgN/A
9:00 AM66 °FScattered clouds.3 mph30%29.92 "HgN/A
8:30 AM64 °FScattered clouds.1 mph28%29.92 "HgN/A
8:00 AM64 °FPassing clouds.No wind37%29.92 "HgN/A
7:30 AM61 °FScattered clouds.1 mph48%29.89 "HgN/A
7:00 AM57 °FScattered clouds.1 mph51%29.89 "HgN/A
6:30 AM54 °FScattered clouds.1 mph58%29.89 "HgN/A
6:00 AM54 °FPartly sunny.3 mph58%29.89 "HgN/A
5:30 AM54 °FPartly sunny.3 mph63%29.89 "HgN/A
5:00 AM55 °FPartly sunny.3 mph55%29.89 "HgN/A
4:30 AM57 °FPassing clouds.3 mph51%29.89 "HgN/A
4:00 AM59 °FPassing clouds.3 mph45%29.89 "HgN/A
3:30 AM61 °FPassing clouds.3 mph36%29.89 "HgN/A
3:00 AM61 °FPassing clouds.6 mph34%29.89 "HgN/A
2:30 AM63 °FPassing clouds.8 mph30%29.89 "HgN/A
2:00 AM64 °FPartly cloudy.10 mph28%29.89 "HgN/A
Weather by CustomWeather, © 2014

See weather overviewHow to use our weather pages